Location: Civry
(47.2902°N, 4.6156°E)
Time: 01:47:03
(UTC+00:00)

SAR-Lupe-2 - Pass Details

Date: 09 April 2020
Orbit: 481 x 485 km, 98.1° (Epoch: 27 May)

Event Time Altitude Azimuth Distance (km) Brightness Sun altitude
Rises 20:15:31 0° 17° (NNE) 2,555 7.5 -18.2°
Reaches altitude 10° 20:17:37 10° 21° (NNE) 1,670 6.4 -18.5°
Maximum altitude 20:21:10 58° 102° (ESE) 568 3.5 -19.0°
Enters shadow 20:21:13 58° 107° (ESE) 568 3.5 -19.0°
